Location: Blama Gogo
(6.4833°N, 10.8667°W)
Time: 21:24:54
(UTC+00:00)

Daily predictions for brighter satellites

Satellite Brightness Start Highest point End
(mag) Time Altitude Azimuth Time Altitude Azimuth Time Altitude Azimuth
CZ-3C R/B 4.3 18:21:12 10° NW 18:26:39 42° NNE 19:15:50 10° E
CZ-3C R/B 4.3 18:21:13 10° NW 18:26:40 42° NNE 19:15:50 10° E
Cosmos 2297 Rocket 2.7 18:58:10 10° SSW 19:03:44 65° WNW 19:09:19 10° N
OAO 3 Rocket 4.1 19:00:29 10° SSW 19:04:42 34° SE 19:08:56 10° ENE
Ariane H10 3.8 19:03:43 10° SW 19:05:52 25° S 19:10:16 10° ESE
GPS 2-04 Rocket1 3.8 19:02:57 10° NNW 19:06:20 25° NE 19:09:38 10° E
ATLAS 3B CENTAUR R/B 1.2 19:09:33 10° WNW 19:11:39 50° SSW 19:15:10 10° SE
Cosmos 1703 4.0 19:08:46 10° SSE 19:12:17 32° E 19:15:49 10° NNE
Cosmos 2333 4.4 19:07:34 10° N 19:12:58 47° ENE 19:18:20 10° SSE
Cosmos 2322 3.7 19:09:16 10° N 19:14:49 60° ENE 19:20:24 10° SSE
Cosmos 2227 Rocket 3.0 19:09:58 10° SSW 19:15:30 55° WNW 19:21:00 10° N
Cosmos 1812 Rocket 3.7 19:12:06 10° N 19:16:28 54° E 19:20:50 10° SSE
Delta 142 3.5 19:14:17 10° WNW 19:19:03 85° SSW 19:23:11 10° ESE
Cosmos 2366 rocket 4.0 19:14:39 10° S 19:20:41 59° E 19:26:43 10° NNE
Atlas Centaur 2 3.7 19:18:40 10° WNW 19:22:33 23° NNW 19:27:11 10° NNE
Ariane H10-3 4.4 19:20:33 10° W 19:25:04 74° S 19:54:22 10° E
Okean-O 3.7 19:23:01 10° S 19:27:17 49° WSW 19:31:33 10° NNW
ADEOS Rocket 3.5 19:21:02 10° NNE 19:28:09 78° ESE 19:35:51 10° S
OAO 2 Rocket 3.5 19:26:07 10° SW 19:30:55 56° SE 19:34:42 16° ENE
Cosmos 2360 Rocket 3.7 19:25:52 10° NW 19:31:06 41° WSW 19:36:19 10° S
Hubble Space Telescope 0.7 19:27:44 10° NW 19:31:51 67° NNE 19:35:53 10° ESE
CZ-4C R/B 4.2 19:27:00 10° NNE 19:32:24 19° ENE 19:37:51 10° ESE
Cosmos 1953 Rocket 3.8 19:29:02 10° S 19:33:27 75° W 19:37:53 10° N
COSMOS 2428 2.9 19:29:07 10° N 19:34:35 47° ENE 19:40:02 10° SSE
Cosmos 2219 Rocket 2.2 19:34:41 10° N 19:40:12 57° ENE 19:45:42 10° SSE
Cosmos 44 Rocket 4.3 19:36:29 10° S 19:40:44 28° ESE 19:42:54 20° ENE
Cosmos-2242 3.6 19:37:53 10° NNE 19:41:44 33° E 19:45:35 10° SSE
Palapa B4 Rocket 3.8 19:40:14 10° W 19:43:45 41° SSW 19:47:30 10° SE
CZ-2D R/B 3.1 19:41:21 10° SSE 19:45:06 62° ENE 19:48:50 10° N
Centaur D-1AR AC-36 2.7 19:44:57 10° NW 19:48:40 23° N 19:49:33 21° NE
Iridium 96 4.0 19:47:11 10° N 19:49:37 64° W 19:52:13 10° S
CSL-04 Debris 4.1 19:46:53 10° SSE 19:52:17 88° ENE 19:57:40 10° NNW
SYLDA PLATFORM 3.8 19:45:36 10° W 19:53:31 82° N 19:55:14 30° E
USA 234 3.2 19:47:08 10° SE 19:53:42 88° NE 20:00:15 10° NW
Meteor 1-11 4.2 19:50:08 10° S 19:55:52 87° E 20:01:31 10° N
H-2A R/B 3.9 19:57:40 10° N 20:01:28 24° NE 20:01:51 24° NE
Fermi 4.5 19:59:12 10° SW 20:03:01 39° SSE 20:03:56 34° ESE
Cosmos 1461 3.3 19:58:55 10° N 20:03:15 44° ENE 20:07:40 10° SE
Cosmos 1939 Rocket 3.3 20:01:53 10° S 20:05:40 59° W 20:09:27 10° NNW
USA 238 DEB 4.0 19:59:35 10° S 20:05:43 41° ESE 20:07:48 32° ENE
USA 238 4.1 19:59:44 10° S 20:05:52 40° ESE 20:07:52 32° ENE
Cosmos 2084 Rocket 4.2 20:02:29 10° NW 20:06:46 53° WSW 20:11:01 10° S
Cosmos 1727 Rocket 4.4 20:04:19 26° NE 20:06:54 37° E 20:12:30 10° SSE
Cosmos 2098 4.4 20:08:24 10° S 20:12:20 86° W 20:12:50 63° N
Meteor 2-12 Rocket 4.5 20:09:36 10° S 20:15:41 79° W 20:21:43 10° N
TIMED 4.4 20:14:57 10° NNW 20:19:18 84° W 20:23:40 10° S
CZ-2C R/B 3.9 20:18:08 24° N 20:20:42 66° WNW 20:25:09 10° SSW
Cosmos 2227 4.1 20:16:42 10° S 20:22:25 69° ESE 20:23:51 49° NE
Cosmos 2333 Rocket 3.3 20:18:02 10° NNW 20:23:22 44° WSW 20:28:41 10° S
NOSS 0 Rocket 3.8 20:18:12 10° N 20:24:20 73° ENE 20:30:27 10° SSE
GPS 2-14 Rocket1 3.6 20:20:54 10° SW 20:24:23 39° S 20:24:23 39° S
Cosmos 1269 Rocket 3.8 20:22:16 10° N 20:27:32 81° ENE 20:32:49 10° SSE
Cosmos 2237 Rocket 4.4 20:33:13 10° SSE 20:33:13 10° SSE 20:33:15 10° SSE
Cosmos 1821 Rocket 4.0 20:24:19 10° S 20:30:43 88° W 20:34:46 24° N
Meteor 2-10 Rocket 3.4 20:26:11 10° N 20:31:19 83° W 20:36:20 10° S
Cosmos 1455 3.5 20:40:37 37° W 20:40:37 37° W 20:44:01 10° SSW
USA 215 3.3 20:40:50 47° NNE 20:42:50 73° NW 20:49:21 10° SW
GPS 2-04 Rocket1 4.5 20:42:20 10° WNW 20:45:22 29° SW 20:45:22 29° SW
Ariane Rocket 3.5 20:41:47 10° S 20:46:44 57° WSW 20:50:33 17° NNW
DASH 4.4 20:47:40 10° WNW 20:49:34 25° NW 20:49:34 25° NW
ARIANE 5 R/B 4.2 20:49:54 10° WSW 20:53:48 28° SW 20:53:48 28° SW
NOSS 3-2 (C) 4.4 20:53:13 10° S 20:56:07 31° S 20:56:07 31° S
Cosmos 2263 Rocket 3.0 21:03:14 10° SSW 21:07:42 47° WSW 21:07:42 47° WSW
Ariane H10+ 3.4 21:06:56 10° WSW 21:12:05 57° SSE 21:12:28 56° SSE
Hubble Space Telescope 3.7 21:09:58 10° WSW 21:11:18 15° WSW 21:11:18 15° WSW
ATLAS 3B R/B 4.3 21:08:54 10° S 21:11:25 22° SSE 21:11:25 22° SSE
CZ-4C R/B 3.4 21:12:51 10° NNW 21:21:06 67° WSW 21:29:22 10° SSE
ATLAS 2AS CENTAUR RB 4.2 16:38:16 10° W 21:28:57 55° S 21:30:56 50° SSE
H-2A R/B 4.3 12:54:31 10° WSW 21:29:30 63° NW 21:31:50 56° N
BLOCK DM-SL R/B 4.4 13:06:16 10° W 21:34:12 47° SSW 21:34:41 47° S
